Location: Marstown
(39.5056°N, 77.0820°W)
Time: 15:32:37
(UTC-05:00)

OTV 5 (USA 277) - Visible Passes

Search period start: 19 November 2018 00:00
Search period end: 29 November 2018 00:00
Orbit: 339 x 348 km, 54.5° (Epoch: 14 November)

Date Brightness Start Highest point End Pass type
(mag) Time Alt. Az. Time Alt. Az. Time Alt. Az.
24 Nov ? 06:10:11 10° SSW 06:12:50 35° SE 06:15:31 10° ENE visible
26 Nov ? 05:23:19 18° S 05:25:00 33° SE 05:27:37 10° ENE visible
27 Nov ? 05:47:27 35° WSW 05:48:24 59° NW 05:51:14 10° NE visible
28 Nov ? 04:39:39 10° ENE 04:39:39 10° ENE 04:39:41 10° ENE visible
28 Nov ? 06:11:07 17° WNW 06:12:02 20° NNW 06:14:16 10° NNE visible
